This is the latest recevied weather packets stored in our database for station/object F4GQK-13. If no packets are shown the sender has not sent any weather packets the latest 1 day(s).
| Time | Temp. | Humidity | Pressure | Rain* | Wind** | Luminosity | Snow |
|---|---|---|---|---|---|---|---|
| 1777970405 | 15° C | 90% | 1008.8 hPa | 0 mm | 2.24 m/s, 51° | 158 W/m² | - |
| 1777970105 | 15° C | 90% | 1008.9 hPa | 0 mm | 2.68 m/s, 67° | 180 W/m² | - |
| 1777969805 | 15° C | 90% | 1008.9 hPa | 0 mm | 1.79 m/s, 90° | 163 W/m² | - |
| 1777969505 | 15° C | 90% | 1008.9 hPa | 0 mm | 2.24 m/s, 67° | 158 W/m² | - |
| 1777969204 | 15° C | 90% | 1009 hPa | 0 mm | 2.68 m/s, 102° | 138 W/m² | - |
| 1777968905 | 15° C | 90% | 1008.9 hPa | 0 mm | 2.68 m/s, 73° | 154 W/m² | - |
| 1777968604 | 15° C | 90% | 1008.9 hPa | 0 mm | 1.79 m/s, 90° | 162 W/m² | - |
| 1777968305 | 15° C | 90% | 1008.8 hPa | 0 mm | 1.34 m/s, 56° | 157 W/m² | - |
| 1777968005 | 14.44° C | 90% | 1009.1 hPa | 0 mm | 2.68 m/s, 21° | 150 W/m² | - |
| 1777967706 | 14.44° C | 91% | 1009 hPa | 0 mm | 2.24 m/s, 353° | 143 W/m² | - |
| 1777967405 | 14.44° C | 91% | 1008.9 hPa | 0 mm | 2.24 m/s, 75° | 149 W/m² | - |
| 1777967104 | 14.44° C | 91% | 1009 hPa | 0 mm | 1.79 m/s, 354° | 151 W/m² | - |
| 1777966804 | 14.44° C | 91% | 1008.8 hPa | 0 mm | 3.13 m/s, 36° | 148 W/m² | - |
| 1777966505 | 14.44° C | 91% | 1009 hPa | 0 mm | 1.79 m/s, 72° | 140 W/m² | - |
| 1777966205 | 14.44° C | 92% | 1009.1 hPa | 0 mm | 2.24 m/s, 2° | 137 W/m² | - |
| 1777965903 | 14.44° C | 92% | 1009.2 hPa | 0 mm | 2.24 m/s, 24° | 126 W/m² | - |
| 1777965605 | 14.44° C | 93% | 1009.3 hPa | 0 mm | 2.24 m/s, 68° | 114 W/m² | - |
| 1777965305 | 14.44° C | 92% | 1009.3 hPa | 0 mm | 1.34 m/s, 93° | 116 W/m² | - |
| 1777965005 | 14.44° C | 92% | 1009.3 hPa | 0 mm | 1.79 m/s, 71° | 126 W/m² | - |
| 1777964705 | 14.44° C | 93% | 1009.3 hPa | 0 mm | 1.79 m/s, 90° | 146 W/m² | - |
| 1777964405 | 14.44° C | 93% | 1009.3 hPa | 0 mm | 3.13 m/s, 35° | 162 W/m² | - |
| 1777964105 | 13.89° C | 93% | 1009.2 hPa | 0 mm | 3.13 m/s, 78° | 143 W/m² | - |
| 1777963505 | 13.89° C | 95% | 1009.3 hPa | 0 mm | 2.24 m/s, 80° | 170 W/m² | - |
| 1777963205 | 13.89° C | 96% | 1009.3 hPa | 0 mm | 2.68 m/s, 72° | 197 W/m² | - |
| 1777962905 | 13.89° C | 96% | 1009.4 hPa | 0 mm | 3.58 m/s, 58° | 261 W/m² | - |
* Rain latest hour (hover to see other rain measurements)
** Current wind speed in m/s (hover to see current wind gust speed)